Graham, TX

1:13 PM CDT on March 26, 2017 (GMT -0500)
Graham

Weather History for KRPH - January, 2014

Change the Weather History Date:

Monday, January 27, 2014

  Actual Average (KMWL) Record (KMWL)
Temperature  
Mean Temperature 34 °F -  
Max Temperature 46 °F 56 °F 77 °F (2015)
Min Temperature 22 °F 33 °F 19 °F (2004)
Degree Days  
Heating Degree Days 30    
Moisture  
Dew Point 3 °F    
Average Humidity 31    
Maximum Humidity 62    
Minimum Humidity 17    
Precipitation  
Precipitation 0.00 in - - ()
Sea Level Pressure  
Sea Level Pressure 30.22 in    
Wind  
Wind Speed 15 mph (North)    
Max Wind Speed 25 mph    
Max Gust Speed 38 mph    
Visibility 10 miles    
Events      
Averages and records for this station are not official NWS values.
T = Trace of Precipitation, MM = Missing Value Source: NWS Daily Summary

Daily Weather History Graph

Daily Weather History Graph

Search for Another Location

Airport or City:

Trip Planner

Search our weather history database for the weather conditions in past years. The results will help you decide how hot, cold, wet, or windy it might be!

Date:

Astronomy

Jan. 27, 2014 Rise Set
Actual Time 7:32 AM CST 6:01 PM CST
Civil Twilight 7:06 AM CST 6:27 PM CST
Nautical Twilight 6:36 AM CST 6:57 PM CST
Astronomical Twilight 6:07 AM CST 7:26 PM CST
Moon 4:13 AM CST (1/27) 2:51 PM CST (1/27)
Length of Visible Light 11h 21m
Length of Day
10h 28m
Waning Crescent, 14% of the Moon is Illuminated
Jan 27
Waning Crescent
Jan 30
New
Feb 6
First Quarter
Feb 14
Full
Feb 22
Last Quarter

Hourly Weather History & Observations

Time (CST) Temp. Windchill Dew Point Humidity Pressure Visibility Wind Dir Wind Speed Gust Speed Precip Events Conditions
12:15 AM 46.4 °F 43.5 °F 27.5 °F 48% 29.85 in 10.0 mi North 5.8 mph - N/A   Clear
12:35 AM 46.6 °F - 28.8 °F 50% 29.85 in 10.0 mi North 6.9 mph - N/A   Clear
12:55 AM 46.6 °F - 28.9 °F 50% 29.86 in 10.0 mi North 6.9 mph - N/A   Clear
1:15 AM 46.6 °F - 28.9 °F 50% 29.87 in 10.0 mi North 6.9 mph - N/A   Clear
1:35 AM 46.2 °F 41.2 °F 29.3 °F 52% 29.89 in 10.0 mi North 10.4 mph - N/A   Clear
1:55 AM 46.9 °F - 29.1 °F 50% 29.91 in 10.0 mi North 16.1 mph 21.9 mph N/A   Clear
2:15 AM 46.2 °F 38.1 °F 28.2 °F 50% 29.94 in 10.0 mi North 23.0 mph 32.2 mph N/A   Clear
2:35 AM 43.9 °F 35.2 °F 28.4 °F 55% 29.97 in 7.0 mi North 21.9 mph 34.5 mph N/A   Clear
2:55 AM 42.1 °F 33.3 °F 28.9 °F 60% 30.00 in 7.0 mi North 19.6 mph 26.5 mph N/A   Clear
3:15 AM 40.1 °F 31.0 °F 28.0 °F 62% 30.01 in 10.0 mi North 18.4 mph 28.8 mph N/A   Clear
3:35 AM 39.2 °F 29.0 °F 26.1 °F 59% 30.03 in 10.0 mi North 21.9 mph 35.7 mph N/A   Clear
3:55 AM 37.9 °F 28.2 °F 24.8 °F 59% 30.05 in 10.0 mi North 18.4 mph 27.6 mph N/A   Clear
4:15 AM 37.4 °F 26.4 °F 20.5 °F 51% 30.06 in 10.0 mi North 23.0 mph 29.9 mph N/A   Clear
4:35 AM 36.5 °F 26.3 °F 16.9 °F 45% 30.08 in 10.0 mi North 18.4 mph 32.2 mph N/A   Clear
4:55 AM 35.8 °F 23.9 °F 13.3 °F 40% 30.10 in 10.0 mi North 24.2 mph 35.7 mph N/A   Clear
5:15 AM 35.1 °F 22.7 °F 12.0 °F 39% 30.11 in 10.0 mi North 25.3 mph 38.0 mph N/A   Clear
5:35 AM 33.8 °F 21.9 °F 8.1 °F 34% 30.13 in 10.0 mi North 21.9 mph 33.4 mph N/A   Clear
5:55 AM 33.3 °F 22.5 °F 9.0 °F 36% 30.14 in 10.0 mi North 17.3 mph 29.9 mph N/A   Clear
6:15 AM 32.0 °F 20.1 °F 7.7 °F 36% 30.17 in 10.0 mi North 19.6 mph 31.1 mph N/A   Scattered Clouds
6:35 AM 30.7 °F 18.5 °F 5.7 °F 35% 30.18 in 10.0 mi North 19.6 mph 27.6 mph N/A   Clear
6:55 AM 30.0 °F 17.9 °F 4.5 °F 34% 30.21 in 10.0 mi North 18.4 mph 26.5 mph N/A   Clear
7:15 AM 29.1 °F 18.4 °F 3.9 °F 34% 30.23 in 10.0 mi North 13.8 mph 20.7 mph N/A   Clear
7:35 AM 28.4 °F 16.6 °F 4.1 °F 36% 30.24 in 10.0 mi North 16.1 mph 23.0 mph N/A   Clear
7:55 AM 28.2 °F 16.3 °F 3.4 °F 35% 30.26 in 10.0 mi North 16.1 mph 20.7 mph N/A   Clear
8:15 AM 28.4 °F 16.2 °F 3.0 °F 34% 30.27 in 10.0 mi North 17.3 mph 21.9 mph N/A   Clear
8:35 AM 28.4 °F 15.8 °F 1.9 °F 32% 30.28 in 10.0 mi North 18.4 mph 28.8 mph N/A   Clear
8:55 AM 28.8 °F 15.2 °F 0.9 °F 30% 30.29 in 10.0 mi North 21.9 mph 27.6 mph N/A   Clear
9:15 AM 29.7 °F 17.1 °F 1.0 °F 29% 30.30 in 10.0 mi North 19.6 mph 28.8 mph N/A   Clear
9:35 AM 30.2 °F 18.5 °F 0.5 °F 28% 30.31 in 10.0 mi North 17.3 mph 25.3 mph N/A   Clear
9:55 AM 31.3 °F 18.5 °F 0.1 °F 26% 30.31 in 10.0 mi North 21.9 mph 28.8 mph N/A   Clear
10:15 AM 31.5 °F 18.8 °F -0.8 °F 25% 30.32 in 10.0 mi North 21.9 mph 26.5 mph N/A   Clear
10:35 AM 30.9 °F 19.1 °F -1.1 °F 25% 30.34 in 10.0 mi North 18.4 mph 25.3 mph N/A   Clear
10:55 AM 31.3 °F 19.9 °F -1.1 °F 25% 30.35 in 10.0 mi NNW 17.3 mph 25.3 mph N/A   Clear
11:15 AM 31.8 °F 19.9 °F -1.3 °F 24% 30.35 in 10.0 mi North 19.6 mph 25.3 mph N/A   Clear
11:35 AM 31.6 °F 20.7 °F -1.5 °F 24% 30.35 in 10.0 mi North 16.1 mph 26.5 mph N/A   Clear
11:55 AM 33.1 °F 22.2 °F -1.1 °F 23% 30.35 in 10.0 mi North 17.3 mph 26.5 mph N/A   Clear
12:15 PM 32.9 °F 22.4 °F -1.5 °F 23% 30.32 in 10.0 mi North 16.1 mph 25.3 mph N/A   Clear
12:35 PM 33.3 °F 22.1 °F -3.6 °F 21% 30.31 in 10.0 mi North 18.4 mph 28.8 mph N/A   Clear
12:55 PM 33.8 °F 22.8 °F -6.0 °F 18% 30.33 in 10.0 mi North 18.4 mph 23.0 mph N/A   Clear
1:15 PM 32.7 °F 22.5 °F -6.7 °F 18% 30.31 in 10.0 mi NNW 15.0 mph 24.2 mph N/A   Clear
1:35 PM 32.0 °F 21.2 °F -8.5 °F 17% 30.30 in 10.0 mi North 16.1 mph 27.6 mph N/A   Clear
1:55 PM 32.4 °F 22.1 °F -6.7 °F 18% 30.29 in 10.0 mi North 15.0 mph 23.0 mph N/A   Clear
2:15 PM 32.2 °F 21.1 °F -6.3 °F 19% 30.28 in 10.0 mi NNW 17.3 mph 24.2 mph N/A   Clear
2:35 PM 31.6 °F 19.7 °F -8.3 °F 18% 30.28 in 10.0 mi NNW 19.6 mph 27.6 mph N/A   Clear
2:55 PM 31.1 °F 19.3 °F -7.1 °F 19% 30.28 in 10.0 mi North 18.4 mph 21.9 mph N/A   Clear
3:15 PM 30.2 °F 18.9 °F -6.9 °F 20% 30.27 in 10.0 mi North 16.1 mph 21.9 mph N/A   Clear
3:35 PM 30.0 °F 17.5 °F -6.2 °F 21% 30.28 in 10.0 mi North 19.6 mph 24.2 mph N/A   Clear
3:55 PM 30.2 °F 20.8 °F -6.5 °F 20% 30.28 in 10.0 mi North 11.5 mph 18.4 mph N/A   Clear
4:15 PM 29.8 °F 18.0 °F -5.1 °F 22% 30.28 in 10.0 mi NNW 17.3 mph 23.0 mph N/A   Clear
4:35 PM 29.7 °F 19.1 °F -5.8 °F 21% 30.28 in 10.0 mi North 13.8 mph 20.7 mph N/A   Clear
4:55 PM 29.3 °F 18.2 °F -7.4 °F 20% 30.27 in 10.0 mi North 15.0 mph 19.6 mph N/A   Clear
5:15 PM 29.1 °F 18.4 °F -6.9 °F 21% 30.27 in 10.0 mi North 13.8 mph 20.7 mph N/A   Clear
5:35 PM 28.9 °F 17.7 °F -6.5 °F 21% 30.28 in 10.0 mi North 15.0 mph - N/A   Clear
5:55 PM 28.4 °F 17.5 °F -6.5 °F 22% 30.29 in 10.0 mi North 13.8 mph 24.2 mph N/A   Clear
6:15 PM 28.0 °F 17.5 °F -7.6 °F 21% 30.28 in 10.0 mi North 12.7 mph 20.7 mph N/A   Clear
6:35 PM 27.9 °F 19.1 °F -7.6 °F 21% 30.28 in 10.0 mi NNE 9.2 mph - N/A   Clear
6:55 PM 27.5 °F 19.3 °F -6.9 °F 22% 30.29 in 10.0 mi North 8.1 mph - N/A   Clear
7:15 PM 27.7 °F 17.6 °F -7.1 °F 22% 30.29 in 10.0 mi North 11.5 mph 16.1 mph N/A   Clear
7:35 PM 27.9 °F 20.6 °F -6.9 °F 22% 30.30 in 10.0 mi NNE 6.9 mph - N/A   Clear
7:55 PM 27.9 °F 20.6 °F -6.3 °F 23% 30.30 in 10.0 mi North 6.9 mph 17.3 mph N/A   Clear
8:15 PM 27.7 °F 20.4 °F -5.8 °F 23% 30.29 in 10.0 mi NNE 6.9 mph - N/A   Clear
8:35 PM 27.9 °F 19.1 °F -4.9 °F 24% 30.30 in 10.0 mi NNE 9.2 mph - N/A   Clear
8:55 PM 26.8 °F 14.9 °F -4.2 °F 26% 30.30 in 10.0 mi North 15.0 mph - N/A   Clear
9:15 PM 26.4 °F 16.0 °F -4.0 °F 27% 30.30 in 10.0 mi North 11.5 mph - N/A   Clear
9:35 PM 25.7 °F 14.0 °F -4.7 °F 27% 30.30 in 10.0 mi North 13.8 mph - N/A   Clear
9:55 PM 25.7 °F 15.1 °F -4.7 °F 27% 30.30 in 10.0 mi North 11.5 mph - N/A   Clear
10:15 PM 25.0 °F 12.2 °F -4.9 °F 27% 30.31 in 10.0 mi North 16.1 mph - N/A   Clear
10:35 PM 24.8 °F 12.9 °F -5.1 °F 27% 30.31 in 10.0 mi North 13.8 mph 19.6 mph N/A   Clear
10:55 PM 24.3 °F 11.7 °F -4.4 °F 29% 30.32 in 10.0 mi North 15.0 mph 20.7 mph N/A   Clear
11:15 PM 23.7 °F 12.6 °F -4.5 °F 29% 30.34 in 10.0 mi North 11.5 mph 20.7 mph N/A   Clear
11:35 PM 23.0 °F 11.7 °F -4.9 °F 29% 30.33 in 10.0 mi NNE 11.5 mph 18.4 mph N/A   Clear
11:55 PM 22.6 °F 11.3 °F -5.4 °F 29% 30.35 in 10.0 mi NNE 11.5 mph 21.9 mph N/A   Clear